Voltar ao catálogo

COSMOS 397 DEB

AtivoLEO
NORAD 6844·DEBRIS·🇷🇺 Russia

Lançado Feb 25, 1971 de Baikonur Cosmodrome

Loading…

Próximas Passagens (próximas 24 horas)

TLE

AtualizadoSource: Space-Track

Época: Sep 14, 2026, 05:21 UTC

1 06844U 71015CL  26257.22345711  .00001233  00000-0  34571-3 0  9995
2 06844  65.8985 347.7206 0550648  67.8354 298.0194 13.86018105632912

Acompanhe COSMOS 397 DEB em tempo real com AllMySat

Download on the App Store